Weather in Poldnevo

Russia / Chelyabinsk Oblast     56°10′37″N   61°38′21″E
temp.,
°C
wind,
m/s
gust,
m/s
humid.,
%
clouds,
%
prec.,
mm/h
press.,
hPa
HPBL,
m
8 march, mon
mon823:00−15wnw349492 0.1 100762
02:00−18wnw459224 0.0 100866
05:00−20w349312 0.0 100931
08:00−20sw34940 0.0 100933
11:00−14ssw589050 0.0 1008284
14:00−11s71193100 0.1 1005592
17:00−7ssw61284100 0.3 1003704
20:00−8s5119199 0.0 1003245
9 march, tue
tue923:00−6sw6138599 0.1 1003419
02:00−8sw613830 0.0 1004301
05:00−11ssw47914 0.0 1004121
08:00−8s41295100 0.1 1002429
11:00−3sw9158399 0.1 10011455
14:00−4w8118093 0.3 10031241
17:00−4w498179 0.4 1007602
20:00−10wsw458328 0.0 101055
10 march, wed
wed1023:00−12wsw348944 0.0 101135
02:00−14w1292100 0.0 101120
05:00−13ese2291100 0.0 100921
08:00−13e3793100 0.0 1007154
11:00−8ese5894100 0.2 1004412
14:00−6e71095100 1.3 1001540
17:00−6e71095100 3.2 998701
20:00−6ene61195100 1.9 997578
11 march, thu
thu1123:00−7ne71195100 4.4 998588
02:00−13nne101593100 2.0 999506
05:00−16n91495100 3.0 1001541
08:00−18n81395100 1.1 1003569
11:00−17nnw71294100 1.7 1005585
14:00−15nnw71190100 0.3 1006635
17:00−15nnw5981100 0.3 1008718
20:00−17nnw4992100 0.0 1011404
12 march, fri
fri1223:00−20nw3494100 0.1 101352
02:00−22nnw3395100 0.0 101541
05:00−24nnw3395100 0.1 101752
08:00−28nw349480 0.0 101945
11:00−21nw358740 0.0 1020261
14:00−16wsw357825 0.0 1020652
17:00−12wsw358756 0.0 1020533
20:00−14wsw4490100 0.1 102179